Location: Newark
(16.3678°N, 77.8722°E)
Time: 01:48:41
(UTC+00:00)

S-56A Canister/Altair - Pass Details

Date: 17 December 2019
Orbit: 634 x 2498 km, 38.9° (Epoch: 25 January)

Event Time Altitude Azimuth Distance (km) Brightness Sun altitude
Rises 23:30:07 0° 211° (SSW) 3,770 11.0 -23.2°
Reaches altitude 10° 23:32:32 10° 205° (SSW) 3,021 10.5 -22.6°
Maximum altitude 23:39:48 47° 133° (SE) 1,909 9.9 -21.0°
Drops below altitude 10° 23:50:33 10° 64° (ENE) 4,442 12.0 -18.5°
Sets 23:54:51 0° 59° (ENE) 5,695 12.6 -17.6°
